Weather History for Richlands, VA

Change the Weather History Date:

Saturday, January 19, 2013

  Actual Average (KBLF) Record (KBLF)
Temperature  
Mean Temperature 33 °F 34 °F  
Max Temperature 42 °F 42 °F 60 °F (1996)
Min Temperature 24 °F 26 °F -18 °F (1994)
Degree Days  
Heating Degree Days 32 31  
Month to date heating degree days 589  
Since 1 July heating degree days 2354  
Cooling Degree Days 0 0  
Month to date cooling degree days 0  
Year to date cooling degree days 0  
Moisture  
Dew Point 23 °F    
Average Humidity 65    
Maximum Humidity 93    
Minimum Humidity 45    
Precipitation  
Precipitation 0.00 in 0.10 in 0.91 in (1996)
Month to date precipitation 1.79  
Year to date precipitation 1.79  
Snow  
Snow 0.00 in - - ()
Month to date snowfall  
Since 1 July snowfall  
Snow Depth -    
Sea Level Pressure  
Sea Level Pressure 30.23 in    
Wind  
Wind Speed 5 mph (SW)    
Max Wind Speed 12 mph    
Max Gust Speed 23 mph    
Visibility 10 miles    
Events      
T = Trace of Precipitation, MM = Missing Value Source: NWS Daily Summary

Daily Weather History Graph

Daily Weather History Graph

Search for Another Location

Airport:

Trip Planner

Search our weather history database for the weather conditions in past years. The results will help you decide how hot, cold, wet, or windy it might be!

Date:

Astronomy

Jan. 19, 2013 Rise Set
Actual Time 7:38 AM EST 5:38 PM EST
Civil Twilight 7:09 AM EST 6:06 PM EST
Nautical Twilight 6:38 AM EST 6:38 PM EST
Astronomical Twilight 6:07 AM EST 7:09 PM EST
Moon 12:02 PM EST (1/19) 1:13 AM EST (1/19)
Length of Visible Light 10h 56m
Length of Day
10h 00m
First Quarter, 57% of the Moon is Illuminated
Jan 19
First Quarter
Jan 26
Full
Feb 3
Last Quarter
Feb 10
New
Feb 17
First Quarter

Hourly Weather History & Observations

Time (EST) Temp. Windchill Dew Point Humidity Pressure Visibility Wind Dir Wind Speed Gust Speed Precip Events Conditions
12:15 AM 24.8 °F 20.5 °F 21.2 °F 86% 30.33 in 10.0 mi SSE 3.5 mph - N/A   Clear
12:35 AM 24.8 °F 19.1 °F 21.2 °F 86% 30.33 in 10.0 mi SSE 4.6 mph - N/A   Clear
12:55 AM 26.6 °F 22.6 °F 21.2 °F 80% 30.31 in 10.0 mi Variable 3.5 mph - N/A   Clear
1:15 AM 26.6 °F 20.0 °F 21.2 °F 80% 30.33 in 10.0 mi South 5.8 mph - N/A   Clear
1:35 AM 26.6 °F 20.0 °F 21.2 °F 80% 30.33 in 10.0 mi South 5.8 mph - N/A   Clear
1:55 AM 26.6 °F 21.2 °F 23.0 °F 86% 30.33 in 10.0 mi WSW 4.6 mph - N/A   Clear
2:15 AM 28.4 °F 24.6 °F 21.2 °F 74% 30.33 in 10.0 mi SSW 3.5 mph - N/A   Clear
2:35 AM 28.4 °F 24.6 °F 21.2 °F 74% 30.33 in 10.0 mi SW 3.5 mph - N/A   Clear
2:55 AM 28.4 °F 23.3 °F 21.2 °F 74% 30.33 in 10.0 mi SW 4.6 mph - N/A   Clear
3:15 AM 28.4 °F 23.3 °F 21.2 °F 74% 30.32 in 10.0 mi SSW 4.6 mph - N/A   Clear
3:35 AM 28.4 °F 23.3 °F 21.2 °F 74% 30.32 in 10.0 mi SW 4.6 mph - N/A   Clear
3:55 AM 28.4 °F 24.6 °F 21.2 °F 74% 30.32 in 10.0 mi Variable 3.5 mph - N/A   Clear
4:15 AM 28.4 °F 23.3 °F 21.2 °F 74% 30.31 in 10.0 mi Variable 4.6 mph - N/A   Clear
4:35 AM 28.4 °F 22.2 °F 21.2 °F 74% 30.30 in 10.0 mi Variable 5.8 mph - N/A   Clear
4:55 AM 28.4 °F 24.6 °F 23.0 °F 80% 30.30 in 10.0 mi Variable 3.5 mph - N/A   Clear
5:15 AM 28.4 °F 24.6 °F 23.0 °F 80% 30.30 in 10.0 mi SW 3.5 mph - N/A   Clear
5:35 AM 26.6 °F - 23.0 °F 86% 30.30 in 10.0 mi Calm Calm - N/A   Clear
5:55 AM 28.4 °F 23.3 °F 23.0 °F 80% 30.30 in 10.0 mi Variable 4.6 mph - N/A   Clear
6:15 AM 26.6 °F - 23.0 °F 86% 30.30 in 10.0 mi Calm Calm - N/A   Clear
6:35 AM 28.4 °F - 24.8 °F 86% 30.29 in 10.0 mi Calm Calm - N/A   Clear
6:55 AM 30.2 °F - 23.0 °F 75% 30.29 in 10.0 mi Calm Calm - N/A   Clear
8:15 AM 26.6 °F 22.6 °F 24.8 °F 93% 30.31 in 10.0 mi South 3.5 mph - N/A   Clear
8:55 AM 33.8 °F - 24.8 °F 70% 30.31 in 10.0 mi Calm Calm - N/A   Clear
9:15 AM 33.8 °F 30.8 °F 24.8 °F 70% 30.31 in 10.0 mi WSW 3.5 mph - N/A   Clear
9:35 AM 35.6 °F - 26.6 °F 70% 30.32 in 10.0 mi Calm Calm - N/A   Clear
10:35 AM 35.6 °F - 26.6 °F 70% 30.32 in 10.0 mi Calm Calm - N/A   Clear
10:55 AM 35.6 °F 29.9 °F 26.6 °F 70% 30.32 in 10.0 mi NW 6.9 mph - N/A   Clear
11:15 AM 35.6 °F 29.9 °F 28.4 °F 75% 30.31 in 10.0 mi WNW 6.9 mph - N/A   Clear
11:35 AM 37.4 °F 33.8 °F 28.4 °F 70% 30.30 in 10.0 mi WNW 4.6 mph - N/A   Clear
12:15 PM 35.6 °F 30.7 °F 28.4 °F 75% 30.26 in 10.0 mi NW 5.8 mph - N/A   Clear
12:35 PM 39.2 °F 34.2 °F 28.4 °F 65% 30.25 in 10.0 mi West 6.9 mph - N/A   Clear
12:55 PM 39.2 °F 35.9 °F 26.6 °F 61% 30.23 in 10.0 mi Variable 4.6 mph - N/A   Clear
1:15 PM 41.0 °F 37.1 °F 26.6 °F 57% 30.23 in 10.0 mi SW 5.8 mph - N/A   Clear
1:35 PM 42.8 °F 37.5 °F 23.0 °F 46% 30.22 in 10.0 mi WSW 9.2 mph - N/A   Clear
1:55 PM 41.0 °F 35.2 °F 24.8 °F 53% 30.21 in 10.0 mi West 9.2 mph - N/A   Clear
2:15 PM 39.2 °F 33.0 °F 24.8 °F 56% 30.20 in 10.0 mi West 9.2 mph - N/A   Clear
2:35 PM 42.8 °F 37.0 °F 24.8 °F 49% 30.19 in 10.0 mi SW 10.4 mph - N/A   Clear
3:15 PM 41.0 °F 34.3 °F 21.2 °F 45% 30.17 in 10.0 mi WSW 11.5 mph - N/A   Clear
3:35 PM 41.0 °F 34.3 °F 21.2 °F 45% 30.16 in 10.0 mi WSW 11.5 mph - N/A   Clear
3:55 PM 41.0 °F 35.8 °F 23.0 °F 49% 30.16 in 10.0 mi WSW 8.1 mph - N/A   Clear
4:15 PM 41.0 °F 35.8 °F 21.2 °F 45% 30.15 in 10.0 mi WSW 8.1 mph - N/A   Clear
4:35 PM 41.0 °F 36.4 °F 21.2 °F 45% 30.15 in 10.0 mi SW 6.9 mph - N/A   Clear
4:55 PM 39.2 °F 35.0 °F 21.2 °F 49% 30.15 in 10.0 mi Variable 5.8 mph - N/A   Clear
5:15 PM 39.2 °F 33.6 °F 21.2 °F 49% 30.14 in 10.0 mi SW 8.1 mph - N/A   Clear
5:35 PM 37.4 °F 30.3 °F 21.2 °F 52% 30.14 in 10.0 mi WSW 10.4 mph - N/A   Clear
5:55 PM 37.4 °F 30.8 °F 17.6 °F 45% 30.13 in 10.0 mi SW 9.2 mph 19.6 mph N/A   Clear
6:15 PM 37.4 °F 30.8 °F 19.4 °F 48% 30.13 in 10.0 mi WSW 9.2 mph - N/A   Clear
6:35 PM 37.4 °F 30.3 °F 19.4 °F 48% 30.13 in 10.0 mi WSW 10.4 mph - N/A   Clear
6:55 PM 37.4 °F 32.1 °F 19.4 °F 48% 30.13 in 10.0 mi SW 6.9 mph - N/A   Clear
7:15 PM 37.4 °F 30.8 °F 19.4 °F 48% 30.13 in 10.0 mi WSW 9.2 mph - N/A   Clear
7:35 PM 37.4 °F 31.4 °F 19.4 °F 48% 30.13 in 10.0 mi WSW 8.1 mph - N/A   Clear
7:55 PM 37.4 °F 30.3 °F 19.4 °F 48% 30.12 in 10.0 mi WSW 10.4 mph - N/A   Clear
8:15 PM 37.4 °F 29.8 °F 21.2 °F 52% 30.12 in 10.0 mi SW 11.5 mph - N/A   Clear
8:35 PM 37.4 °F 30.8 °F 24.8 °F 60% 30.11 in 10.0 mi SW 9.2 mph - N/A   Clear
8:55 PM 37.4 °F 30.8 °F 24.8 °F 60% 30.11 in 10.0 mi SW 9.2 mph - N/A   Clear
9:15 PM 37.4 °F 30.8 °F 24.8 °F 60% 30.10 in 10.0 mi SW 9.2 mph - N/A   Clear
9:55 PM 37.4 °F 30.3 °F 24.8 °F 60% 30.09 in 10.0 mi SW 10.4 mph - N/A   Clear
10:15 PM 37.4 °F 30.3 °F 24.8 °F 60% 30.09 in 10.0 mi SW 10.4 mph - N/A   Clear
10:35 PM 37.4 °F 29.8 °F 24.8 °F 60% 30.08 in 10.0 mi SW 11.5 mph 23.0 mph N/A   Clear
10:55 PM 37.4 °F 29.8 °F 24.8 °F 60% 30.08 in 10.0 mi SW 11.5 mph 23.0 mph N/A   Clear
11:55 PM 37.4 °F 30.8 °F 24.8 °F 60% 30.07 in 10.0 mi SW 9.2 mph - N/A   Clear